Weather History for Karlovy Vary, Czech Republic

Change the Weather History Date:

Tuesday, January 8, 2013

  Actual Average (EDQM) Record (EDQM)
Temperature  
Mean Temperature 37 °F -  
Max Temperature 39 °F 32 °F 50 °F (2005)
Min Temperature 35 °F 25 °F 3 °F (2003)
Degree Days  
Heating Degree Days 28    
Moisture  
Dew Point 36 °F    
Average Humidity 95    
Maximum Humidity 100    
Minimum Humidity 87    
Precipitation  
Precipitation 0.00 in - - ()
Sea Level Pressure  
Sea Level Pressure 30.17 in    
Wind  
Wind Speed 6 mph ()    
Max Wind Speed 12 mph    
Max Gust Speed -    
Visibility 3.5 miles    
Events Rain    
Averages and records for this station are not official NWS values.
T = Trace of Precipitation, MM = Missing Value Source: Averaged Metar Reports

Daily Weather History Graph

Daily Weather History Graph

Search for Another Location

Airport:

Trip Planner

Search our weather history database for the weather conditions in past years. The results will help you decide how hot, cold, wet, or windy it might be!

Date:

Astronomy

Jan. 08, 2013 Rise Set
Actual Time 8:06 AM CET 4:24 PM CET
Civil Twilight 7:28 AM CET 5:02 PM CET
Nautical Twilight 6:47 AM CET 5:43 PM CET
Astronomical Twilight 6:07 AM CET 6:22 PM CET
Moon 4:16 AM CET (1/8) 1:13 PM CET (1/8)
Length of Visible Light 9h 34m
Length of Day
8h 18m
Waning Crescent, 16% of the Moon is Illuminated
Jan 8
Waning Crescent
Jan 11
New
Jan 19
First Quarter
Jan 27
Full
Feb 3
Last Quarter

Hourly Weather History & Observations

Time (CET) Temp. Windchill Dew Point Humidity Pressure Visibility Wind Dir Wind Speed Gust Speed Precip Events Conditions
12:00 AM 37.4 °F 33.8 °F 35.6 °F 93% 30.27 in 6.2 mi WSW 4.6 mph - N/A   Mostly Cloudy
1:00 AM 37.4 °F 32.8 °F 35.6 °F 93% 30.24 in 3.7 mi West 5.8 mph - N/A   Mostly Cloudy
2:00 AM 37.4 °F 34.9 °F 35.6 °F 93% 30.24 in 3.7 mi WSW 3.5 mph - N/A   Mostly Cloudy
3:00 AM 35.6 °F 32.8 °F 35.6 °F 100% 30.24 in 3.7 mi West 3.5 mph - N/A   Mostly Cloudy
4:00 AM 35.6 °F 31.7 °F 35.6 °F 100% 30.21 in 3.7 mi WSW 4.6 mph - N/A   Mostly Cloudy
5:00 AM 35.6 °F 32.8 °F 35.6 °F 100% 30.21 in 3.7 mi SW 3.5 mph - N/A   Mostly Cloudy
6:00 AM 35.6 °F 30.7 °F 35.6 °F 100% 30.18 in 3.1 mi West 5.8 mph - N/A   Mostly Cloudy
6:30 AM 35.6 °F 29.9 °F 35.6 °F 100% 30.21 in 3.1 mi West 6.9 mph - N/A   Mostly Cloudy
7:00 AM 35.6 °F 30.7 °F 35.6 °F 100% 30.21 in 3.1 mi WSW 5.8 mph - N/A   Mostly Cloudy
7:30 AM 35.6 °F 31.7 °F 35.6 °F 100% 30.18 in 3.1 mi WSW 4.6 mph - N/A   Mostly Cloudy
8:00 AM 37.4 °F 33.8 °F 35.6 °F 93% 30.21 in 3.1 mi West 4.6 mph - N/A   Mostly Cloudy
8:30 AM 37.4 °F 34.9 °F 35.6 °F 93% 30.18 in 3.1 mi WSW 3.5 mph - N/A   Mostly Cloudy
9:00 AM 37.4 °F 34.9 °F 35.6 °F 93% 30.18 in 3.1 mi SW 3.5 mph - N/A   Mostly Cloudy
9:30 AM 37.4 °F 34.9 °F 35.6 °F 93% 30.18 in 2.5 mi WSW 3.5 mph - N/A   Mostly Cloudy
10:00 AM 37.4 °F 34.9 °F 35.6 °F 93% 30.18 in 2.5 mi WSW 3.5 mph - N/A   Mostly Cloudy
10:30 AM 37.4 °F - 35.6 °F 93% 30.18 in 2.5 mi Variable 2.3 mph - N/A   Mostly Cloudy
10:41 AM 37.4 °F 34.9 °F 37.4 °F 100% 30.18 in 3.1 mi SW 3.5 mph - N/A Rain Light Rain
11:00 AM 39.2 °F 35.9 °F 37.4 °F 93% 30.18 in 3.1 mi WSW 4.6 mph - N/A Rain Light Rain
11:30 AM 39.2 °F 35.0 °F 37.4 °F 93% 30.15 in 3.1 mi WSW 5.8 mph - N/A   Mostly Cloudy
12:00 PM 39.2 °F 33.0 °F 37.4 °F 93% 30.15 in 3.7 mi West 9.2 mph - N/A   Mostly Cloudy
12:30 PM 39.2 °F 32.5 °F 35.6 °F 87% 30.15 in 3.7 mi West 10.4 mph - N/A   Mostly Cloudy
1:00 PM 39.2 °F 33.6 °F 35.6 °F 87% 30.12 in 3.1 mi West 8.1 mph - N/A   Mostly Cloudy
1:05 PM 39.2 °F 33.0 °F 35.6 °F 87% 30.12 in 3.1 mi West 9.2 mph - N/A Rain Light Rain
1:30 PM 39.2 °F 33.0 °F 37.4 °F 93% 30.12 in 2.5 mi West 9.2 mph - N/A Rain Light Rain
2:00 PM 39.2 °F 33.0 °F 37.4 °F 93% 30.12 in 2.5 mi West 9.2 mph - N/A Rain Light Rain
2:30 PM 39.2 °F 32.5 °F 37.4 °F 93% 30.12 in 3.1 mi West 10.4 mph - N/A Rain Light Rain
3:00 PM 39.2 °F 32.0 °F 37.4 °F 93% 30.12 in 2.5 mi West 11.5 mph - N/A Rain Light Rain
3:30 PM 37.4 °F 30.8 °F 37.4 °F 100% 30.15 in 1.9 mi West 9.2 mph - N/A Rain Light Rain
4:00 PM 37.4 °F 30.8 °F 37.4 °F 100% 30.15 in 1.9 mi West 9.2 mph - N/A Rain Light Rain
4:30 PM 37.4 °F 29.8 °F 37.4 °F 100% 30.15 in 2.5 mi West 11.5 mph - N/A Rain Light Rain
5:00 PM 37.4 °F 30.3 °F 37.4 °F 100% 30.15 in 4.3 mi West 10.4 mph - N/A   Mostly Cloudy
5:30 PM 37.4 °F 30.3 °F 37.4 °F 100% 30.15 in 6.2 mi West 10.4 mph - N/A   Mostly Cloudy
6:00 PM 37.4 °F 30.3 °F 37.4 °F 100% 30.15 in 6.2 mi West 10.4 mph - N/A   Mostly Cloudy
6:30 PM 37.4 °F 30.3 °F 37.4 °F 100% 30.15 in 6.2 mi West 10.4 mph - N/A   Mostly Cloudy
7:00 PM 37.4 °F 30.3 °F 35.6 °F 93% 30.15 in 6.2 mi West 10.4 mph - N/A   Mostly Cloudy
7:30 PM 37.4 °F 30.8 °F 35.6 °F 93% 30.18 in 6.2 mi WSW 9.2 mph - N/A   Mostly Cloudy
8:00 PM 37.4 °F 30.8 °F 35.6 °F 93% 30.18 in 3.1 mi WSW 9.2 mph - N/A   Mostly Cloudy
8:22 PM 37.4 °F 30.3 °F 35.6 °F 93% 30.18 in 1.9 mi WSW 10.4 mph - N/A   Mostly Cloudy
9:00 PM 37.4 °F 30.3 °F 35.6 °F 93% 30.18 in 0.9 mi West 10.4 mph - N/A   Mostly Cloudy
10:00 PM 37.4 °F 30.8 °F 35.6 °F 93% 30.18 in 5.0 mi WSW 9.2 mph - N/A   Mostly Cloudy
11:00 PM 37.4 °F 30.8 °F 35.6 °F 93% 30.18 in 5.0 mi WSW 9.2 mph - N/A   Mostly Cloudy